#timestamp,LO_Frequency,Hit,StdDev 
1515067215.5,286046997.3,N
1515067235.3,286046999.6,N
1515067255.2,286046996.5,N
1515067275.9,286046999.1,N
1515067295.7,286046998.4,N
1515067315.6,286046999.3,N
1515067335.4,286046997.0,N
1515067355.2,286047000.9,N
1515067375.1,286047000.1,N
1515067376.0,286047000.1,N
1515067395.8,286047002.1,N
1515067415.6,286047001.0,N
1515067435.4,286046999.6,N
1515067455.3,286046997.9,N
1515067475.1,286046999.4,N
1515067495.8,286046999.0,N
1515067515.7,286046999.1,N
1515067535.5,286046998.3,N
1515067555.3,286046998.6,N
1515067575.2,286046996.6,N
1515067595.9,286046997.0,N
1515067615.7,286046997.7,N
1515067635.6,286046995.7,N
1515067655.4,286046995.9,N
1515067675.2,286046993.8,Y
1515067695.1,286046999.6,P
1515067696.0,286046999.6,N
1515067715.8,286046999.6,N
1515067735.6,286046999.9,N
1515067755.5,286046998.4,N
1515067775.3,286046997.2,Y
1515067795.1,286046997.4,P
1515067815.9,286046998.0,N
1515067835.7,286046996.9,P
1515067855.5,286046997.9,N
1515067875.4,286046996.5,Y
1515067895.2,286047003.2,P
1515067915.0,286047005.6,N
1515067915.9,286047005.6,N
1515067935.8,286047001.7,N
1515067955.6,286047002.8,N
1515067975.4,286047005.5,N
1515067995.2,286047005.9,N
1515068015.1,286047006.4,N
1515068016.0,286047006.4,N
1515068035.8,286047009.4,Y
1515068055.7,286047002.6,P
1515068075.5,286047001.2,N
1515068095.3,286046998.1,N
1515068115.1,286047000.2,N
1515068135.9,286047003.1,N
1515068155.7,286047007.3,Y
1515068175.5,286047006.8,P
1515068195.4,286047006.3,N
1515068215.2,286047010.5,P
1515068235.0,286047006.2,N
1515068235.9,286047006.2,N
1515068255.8,286047006.9,N
1515068275.6,286047011.7,Y
1515068295.4,286047006.4,P
1515068315.3,286047008.0,P
1515068335.1,286047008.9,P
1515068355.8,286047006.5,Y
1515068375.7,286046996.7,P
1515068395.5,286046998.7,N
1515068415.3,286047001.2,N
1515068435.2,286046998.9,N
1515068455.9,286047000.3,N
1515068475.7,286046999.3,N
1515068495.6,286046995.2,N
1515068515.4,286046999.4,N
1515068535.2,286047000.1,N
1515068555.1,286046998.2,N
1515068556.0,286046998.2,N
1515068575.8,286046999.8,N
1515068595.6,286047000.5,N
1515068615.4,286046999.1,N
1515068635.3,286046993.4,N
1515068655.1,286046995.3,N
1515068675.8,286046994.8,N
1515068695.7,286046992.7,N
1515068715.5,286046991.3,N
1515068735.3,286046991.0,N
1515068755.2,286046992.9,N
1515068775.9,286046996.4,N
1515068795.7,286046993.8,N
1515068815.6,286046993.1,N
1515068835.4,286046989.3,N
1515068855.2,286046986.9,Y
1515068875.1,286046989.0,P
1515068876.0,286046989.0,N
1515068895.8,286046988.2,P
1515068915.6,286046988.0,Y
1515068935.5,286046998.5,P
1515068955.3,286047000.2,N
1515068975.1,286046999.4,N
1515068995.9,286046999.3,N
1515069015.7,286047000.5,N
1515069035.5,286046997.3,N
1515069055.3,286046991.9,N
1515069075.2,286046990.3,N
1515069095.0,286046992.8,N
1515069095.9,286046992.8,N
1515069115.7,286046991.2,N
1515069135.6,286046987.3,Y
1515069155.4,286046991.9,P
1515069175.2,286046990.1,P
1515069195.1,286046987.1,P
1515069196.0,286046987.1,Y
1515069215.8,286046997.1,P
1515069235.6,286046998.2,N
1515069255.5,286047001.1,N
1515069275.3,286046996.8,N
1515069295.1,286046993.5,N
1515069315.9,286046993.5,N
1515069335.7,286046995.8,N
1515069355.5,286046996.4,N
1515069375.4,286046993.3,N
1515069395.2,286046994.0,N
1515069415.0,286046994.8,N
1515069415.9,286046994.8,N
1515069435.8,286046995.0,N
1515069455.6,286046995.1,N
1515069475.4,286046995.3,N
1515069495.3,286046996.4,N
1515069515.1,286046992.1,Y
1515069516.0,286046992.1,P
1515069535.8,286046996.6,N
1515069555.7,286047002.6,N
1515069575.5,286046997.4,N
1515069595.3,286046996.4,N
1515069615.1,286046995.1,N
1515069635.9,286046996.8,N
1515069655.7,286047000.5,N
1515069675.5,286046998.9,N
1515069695.4,286047001.7,N
1515069715.2,286047002.5,N
1515069735.0,286047006.0,N
1515069735.9,286047006.0,N
1515069755.8,286047003.1,N
1515069775.6,286047001.3,N
1515069795.4,286047003.0,N
1515069815.3,286047000.4,N
1515069835.1,286046996.6,N
1515069836.0,286046996.6,N
1515069855.8,286046997.0,N
1515069875.7,286047000.9,N
1515069895.5,286047005.9,N
1515069915.3,286047006.0,N
1515069935.1,286047005.0,N
1515069955.9,286047007.5,N
1515069975.7,286047007.9,N
1515069995.5,286047006.2,N
1515070015.4,286047004.7,N
1515070035.2,286047004.7,N
1515070055.0,286047003.8,N
1515070055.9,286047003.8,N
1515070075.8,286047006.0,N
1515070095.6,286047003.8,N
1515070115.4,286047001.7,N
1515070135.3,286047006.0,N
1515070155.1,286047002.7,N
1515070156.0,286047002.7,N
1515070175.8,286047004.3,N
1515070195.7,286047004.6,N
1515070215.5,286047007.8,N
1515070235.3,286047006.1,N
1515070255.1,286047004.9,N
1515070275.9,286047002.5,N
1515070295.7,286047005.4,N
1515070315.5,286047003.5,N
1515070335.4,286047005.1,N
1515070355.2,286047009.0,Y
1515070375.0,286047004.6,P
1515070375.9,286047004.6,P
1515070395.8,286047005.6,P
1515070415.6,286047003.2,Y
1515070435.4,286046996.0,P
1515070455.3,286046994.4,N
1515070475.1,286046990.7,N
1515070495.8,286046990.9,N
1515070515.7,286046990.0,N
1515070535.5,286046989.8,N
1515070555.3,286046992.5,N
1515070575.2,286046990.1,N
1515070595.9,286046990.8,N
1515070615.7,286046985.8,Y
1515070635.6,286046992.9,P
1515070655.4,286046991.7,P
1515070675.2,286046992.8,P
1515070695.1,286046990.6,Y
1515070696.0,286046990.6,P
1515070715.8,286046996.5,P
1515070735.6,286046994.9,N
1515070755.5,286046997.4,N
1515070775.3,286046993.3,N
1515070795.1,286046992.4,Y
